STARLINK-2315, 47789

Orbit data source: Space-Track

STARLINK-2315, 47789 is a payload satellite owned by SpaceX/Seattle (US) in LEO that was launched on Thu, 11 Mar 2021 UTC via an FALCON 9 launch vehicle from the Air Force Eastern Test Range (AFETR). Payload-class satellites include a variety of spacecraft equipped with specific instruments for various scientific and technological missions. These include communications satellites like Starlink; space stations such as the ISS; scientific satellites like the Hubble; Earth observation satellites from companies like Planet Labs, Umbra, and HawkEye 360; GPS; miniature CubeSats for education and research; and military/defense satellites.

Loading next visibility...
Identifier
47789, 2021-018C
Orbit
LEO
Country
Flag of USUS
Related business
Manufacturer
SpaceX/Seattle
Mission
Operational Commercial Communications
Bus & Motor
STARLINK, Unknown motor
Mass
260 kg wet, ~248 kg dry
Launch date (UTC)
2021-03-11 (5 years ago)
Launch vehicle
FALCON 9
Launch site
Air Force Eastern Test Range (AFETR)
Object type
Payload
Rocket body
Debris
Shape & HBR
Box + 1 Pan, 10.1 m
Radar Cross Section
13.562 m², Large (>1 m²)

Expand to show TLE details & history
Last TLE update: 13 hours ago

TLE from 13 hours ago
0 STARLINK-2315
1 47789U 21018C   25292.24365419 -.00004145  00000-0 -25945-3 0  9995
2 47789  53.0525 146.5947 0001488  98.2134 261.9024 15.06406683255567
Epoch: 2025-10-19T05:50Z
TLE epoch observation values (Epoch: 2025-10-19T05:50:51.722Z)
Latitude
0.00002°
Longitude
30.9161°
Altitude
548.215 km
Speed
7.589 km/s
True Right ascension
09h 46m 22s
True Declination
0° 00' 00"
Sunlit
Object was in daylight at epoch
Visualization orbit readout
Latitude
Unknown
Longitude
Unknown
Altitude
Unknown
Speed
Unknown
Apparent Right ascension
Unknown
Apparent Declination
Unknown
Sunlit
N/A
Visualization observer readout
Local Sidereal Time
13:29:55
Azimuth
Unknown
Elevation
Unknown
Doppler factor
Unknown
Orbital elements
Apogee altitude
548.493 km
Perigee altitude
546.432 km
Semi-major axis
6,925.599 km
Eccentricity
0.00015
Inclination
53.0525°
RAAN
146.5947°
Arg. of periapsis
98.2134°
True anomaly
261.88552°
Mean anomaly
261.9024°
Eccentric anomaly
261.89396°
Mean motion
3.7658 °/min
Orbital period
95.6 mins
BSTAR
-0.00025945
Loading maneuver chart data...
Computing Atmospheric mass density...
Loading historical data...
Loading historical data...
Loading historical data...
Loading historical data...
Loading historical data...
Loading historical data...
Loading historical data...

Documentation

Showing up to 5 results
|